Date String (YYYY-MM-DD hh:mm:ss) UTC,Instrument flags,Ambient pressure (hPa),Sample flow (lpm),Bypass flow (lpm),Sample temperature (°C),Ambient temperature (°C),ASC tube jacket temperature (°C),LED temperature (°C),Box temperature (°C),Sample RH (%),Span deviation,Mass concentration (μg/m³),Mass concentration (μg/m³),Mass concentration (μg/m³)
DateTimeUTC,F1_M11,P_M11,Q1_M11,Q2_M11,T1_M11,T2_M11,T3_M11,T4_M11,T5_M11,U1_M11,ZSPAN_M11,X0_M11,X2_M11,X1_M11
2022-12-07 01:00:00,,0822.4,5.00,0.00,21.7,20.3,00.0,30.7,23.4,11.0,0000.0,0005.62,0001.58,0000.68
2022-12-07 01:01:00,,0822.3,5.00,0.00,21.7,20.3,00.0,30.7,23.4,11.0,0000.0,0005.54,0001.54,0000.68
2022-12-07 01:02:00,,0822.3,5.00,0.00,21.7,20.2,00.0,30.7,23.3,11.0,0000.0,0003.15,0001.14,0000.67
2022-12-07 01:03:00,,0822.4,4.99,0.00,21.7,20.2,00.0,30.7,23.3,10.9,0000.0,0001.81,0000.96,0000.68
2022-12-07 01:04:00,,0822.4,5.00,0.00,21.7,20.2,00.0,30.7,23.3,10.9,0000.0,0001.85,0000.97,0000.68
2022-12-07 01:05:00,,0822.3,5.00,0.00,21.6,20.1,00.0,30.6,23.3,10.9,0000.0,0001.90,0001.01,0000.70
2022-12-07 01:06:00,,0822.4,5.01,0.00,21.6,20.1,00.0,30.6,23.3,11.0,0000.0,0001.80,0001.02,0000.72
2022-12-07 01:07:00,,0822.4,5.01,0.00,21.6,20.1,00.0,30.6,23.3,11.0,0000.0,0001.87,0001.06,0000.76
2022-12-07 01:08:00,,0822.3,5.00,0.00,21.6,20.1,00.0,30.6,23.3,11.1,0000.0,0001.98,0001.14,0000.81
2022-12-07 01:09:00,,0822.4,5.00,0.00,21.6,20.1,00.0,30.6,23.3,11.1,0000.0,0001.79,0001.13,0000.86
2022-12-07 01:10:00,,0822.4,5.01,0.00,21.7,20.8,00.0,30.6,23.5,11.1,0000.0,0001.70,0001.12,0000.89
2022-12-07 01:11:00,,0822.4,5.00,0.00,21.8,21.7,00.0,30.6,23.8,11.0,0000.0,0001.73,0001.16,0000.92
2022-12-07 01:12:00,,0822.4,4.99,0.00,21.9,21.7,00.0,30.6,23.9,10.9,0000.0,0001.76,0001.22,0000.99
2022-12-07 01:13:00,,0822.4,4.99,0.00,21.9,21.5,00.0,30.7,23.9,10.9,0000.0,0001.87,0001.30,0001.07
2022-12-07 01:14:00,,0822.3,5.00,0.00,21.9,21.3,00.0,30.7,23.8,10.9,0000.0,0001.90,0001.33,0001.12
2022-12-07 01:15:00,,0822.3,5.00,0.00,21.9,21.1,00.0,30.7,23.8,10.9,0000.0,0001.92,0001.37,0001.15
2022-12-07 01:16:00,,0822.3,5.00,0.00,21.9,20.9,00.0,30.8,23.8,10.9,0000.0,0002.04,0001.39,0001.18
2022-12-07 01:17:00,,0822.3,5.00,0.00,21.9,20.7,00.0,30.8,23.7,10.9,0000.0,0002.12,0001.43,0001.21
2022-12-07 01:18:00,,0822.3,5.00,0.00,21.9,20.6,00.0,30.8,23.7,10.9,0000.0,0002.16,0001.46,0001.23
2022-12-07 01:19:00,,0822.3,5.00,0.00,21.8,20.5,00.0,30.7,23.6,11.0,0000.0,0002.19,0001.49,0001.26
2022-12-07 01:20:00,,0822.2,5.00,0.00,21.8,20.4,00.0,30.7,23.5,10.9,0000.0,0002.50,0001.53,0001.27
2022-12-07 01:21:00,,0822.3,5.01,0.00,21.8,20.4,00.0,30.7,23.5,10.9,0000.0,0002.59,0001.56,0001.28
2022-12-07 01:22:00,,0822.1,5.01,0.00,21.8,20.3,00.0,30.7,23.5,11.0,0000.0,0002.68,0001.59,0001.30
2022-12-07 01:23:00,,0822.2,5.00,0.00,21.7,20.3,00.0,30.7,23.4,11.1,0000.0,0002.86,0001.64,0001.31
2022-12-07 01:24:00,,0822.1,5.00,0.00,21.7,20.2,00.0,30.7,23.4,11.0,0000.0,0002.82,0001.63,0001.31
2022-12-07 01:25:00,,0822.1,5.00,0.00,21.7,20.2,00.0,30.7,23.4,11.1,0000.0,0002.82,0001.65,0001.33
2022-12-07 01:26:00,,0822.2,5.00,0.00,21.7,20.1,00.0,30.7,23.3,11.1,0000.0,0002.83,0001.67,0001.36
2022-12-07 01:27:00,,0822.3,5.00,0.00,21.6,20.1,00.0,30.7,23.3,11.2,0000.0,0002.83,0001.72,0001.40
2022-12-07 01:28:00,,0822.3,5.00,0.00,21.6,20.3,00.0,30.6,23.4,11.2,0000.0,0002.80,0001.75,0001.45
2022-12-07 01:29:00,,0822.2,5.01,0.00,21.7,21.2,00.0,30.6,23.6,11.1,0000.0,0002.94,0001.82,0001.49
2022-12-07 01:30:00,,0822.3,4.99,0.00,21.8,21.9,00.0,30.6,23.9,11.0,0000.0,0003.04,0001.87,0001.52
2022-12-07 01:31:00,,0822.3,4.99,0.00,21.9,21.7,00.0,30.7,23.9,11.1,0000.0,0003.03,0001.92,0001.54
2022-12-07 01:32:00,,0822.4,5.00,0.00,21.9,21.4,00.0,30.7,23.9,11.1,0000.0,0002.90,0001.94,0001.57
2022-12-07 01:33:00,,0822.3,5.00,0.00,21.9,21.2,00.0,30.8,23.8,11.1,0000.0,0002.91,0001.94,0001.59
2022-12-07 01:34:00,,0822.3,5.00,0.00,21.9,21.0,00.0,30.8,23.8,11.0,0000.0,0002.75,0001.91,0001.61
2022-12-07 01:35:00,,0822.3,5.00,0.00,21.9,20.8,00.0,30.8,23.7,11.1,0000.0,0002.78,0001.92,0001.61
2022-12-07 01:36:00,,0822.3,5.01,0.00,21.9,20.7,00.0,30.8,23.7,11.0,0000.0,0003.56,0001.94,0001.60
2022-12-07 01:37:00,,0822.2,5.01,0.00,21.9,20.6,00.0,30.8,23.6,11.0,0000.0,0004.26,0001.94,0001.59
2022-12-07 01:38:00,,0822.2,5.01,0.00,21.9,20.5,00.0,30.8,23.6,11.1,0000.0,0004.27,0001.91,0001.55
2022-12-07 01:39:00,,0822.3,5.00,0.00,21.8,20.4,00.0,30.8,23.6,11.1,0000.0,0004.29,0001.88,0001.51
2022-12-07 01:40:00,,0822.3,5.00,0.00,21.8,20.4,00.0,30.8,23.5,11.1,0000.0,0004.24,0001.84,0001.48
2022-12-07 01:41:00,,0822.2,4.99,0.00,21.8,20.3,00.0,30.8,23.5,11.1,0000.0,0004.07,0001.77,0001.45
2022-12-07 01:42:00,,0822.3,4.99,0.00,21.8,20.2,00.0,30.8,23.4,11.1,0000.0,0003.94,0001.70,0001.42
2022-12-07 01:43:00,,0822.2,5.01,0.00,21.7,20.2,00.0,30.7,23.4,11.2,0000.0,0003.86,0001.65,0001.39
2022-12-07 01:44:00,,0822.3,5.00,0.00,21.7,20.1,00.0,30.7,23.4,11.3,0000.0,0003.83,0001.65,0001.37
2022-12-07 01:45:00,,0822.3,5.00,0.00,21.7,20.1,00.0,30.7,23.3,11.3,0000.0,0003.89,0001.66,0001.35
2022-12-07 01:46:00,,0822.2,5.00,0.00,21.7,20.2,00.0,30.7,23.4,11.3,0000.0,0003.77,0001.61,0001.33
2022-12-07 01:47:00,,0822.3,5.01,0.00,21.7,21.1,00.0,30.6,23.7,11.2,0000.0,0002.98,0001.55,0001.32
2022-12-07 01:48:00,,0822.3,5.00,0.00,21.9,21.9,00.0,30.6,23.9,11.2,0000.0,0002.27,0001.54,0001.31
2022-12-07 01:49:00,,0822.3,4.99,0.00,21.9,21.8,00.0,30.7,24.0,11.2,0000.0,0002.21,0001.54,0001.33
2022-12-07 01:50:00,,0822.4,4.99,0.00,21.9,21.4,00.0,30.8,23.9,11.2,0000.0,0002.19,0001.57,0001.35
2022-12-07 01:51:00,,0822.4,5.00,0.00,21.9,21.2,00.0,30.8,23.8,11.3,0000.0,0002.17,0001.58,0001.35
2022-12-07 01:52:00,,0822.4,5.00,0.00,21.9,21.0,00.0,30.8,23.8,11.2,0000.0,0002.21,0001.60,0001.36
2022-12-07 01:53:00,,0822.4,4.99,0.00,21.9,20.8,00.0,30.8,23.7,11.2,0000.0,0002.22,0001.61,0001.36
2022-12-07 01:54:00,,0822.4,5.00,0.00,21.9,20.7,00.0,30.8,23.6,11.3,0000.0,0002.29,0001.63,0001.36
2022-12-07 01:55:00,,0822.4,5.00,0.00,21.9,20.6,00.0,30.8,23.6,11.4,0000.0,0002.57,0001.65,0001.35
2022-12-07 01:56:00,,0822.4,5.01,0.00,21.9,20.5,00.0,30.8,23.6,11.4,0000.0,0002.54,0001.63,0001.33
2022-12-07 01:57:00,,0822.4,5.00,0.00,21.9,20.5,00.0,30.8,23.6,11.4,0000.0,0002.57,0001.61,0001.32
2022-12-07 01:58:00,,0822.4,5.00,0.00,21.8,20.4,00.0,30.8,23.5,11.4,0000.0,0002.89,0001.60,0001.31
2022-12-07 01:59:00,,0822.4,5.00,0.00,21.8,20.3,00.0,30.8,23.5,11.3,0000.0,0002.80,0001.56,0001.28
